EW6288 Weather Reports


Display with metric or nautical units.
time (UTC)temp
F
wind
direction
speed
MPH
gust
MPH
rain 1hr
in
rain 24hr
in
rain mn
in
humidity
%
barometer
mb
20260906221902 84 244 0.0 1.0 0.00 0.00 0.00 83 1011.3
20260906221403 84 244 0.0 2.0 0.00 0.00 0.00 84 1011.4
20260906220902 85 244 0.0 2.0 0.00 0.00 0.00 84 1011.3
20260906220403 84 244 1.0 2.0 0.00 0.00 0.00 82 1011.5
20260906220129 85 244 1.0 2.0 0.00 0.00 0.00 84 1011.6
20260906215400 85 244 0.0 2.0 0.00 0.00 0.00 82 1011.8
20260906214859 85 244 0.0 2.0 0.00 0.00 0.00 83 1011.8
20260906214358 85 244 0.0 2.0 0.00 0.00 0.00 84 1011.7
20260906213857 84 244 0.0 2.0 0.00 0.00 0.00 84 1011.6
20260906213630 84 239 0.0 2.0 0.00 0.00 0.00 85 1011.7
20260906212902 84 239 0.0 2.0 0.00 0.00 0.00 84 1011.7
20260906212357 84 239 1.0 3.0 0.00 0.00 0.00 84 1011.9
20260906211859 84 239 1.0 3.0 0.00 0.00 0.00 83 1012.1
20260906211403 85 266 1.0 4.0 0.00 0.00 0.00 82 1012.3
20260906211358 84 237 1.0 3.0 0.00 0.00 0.00 82 1012.2
20260906210357 85 74 1.0 4.0 0.00 0.00 0.00 82 1012.2
20260906210127 86 106 1.0 3.0 0.00 0.00 0.00 81 1012.2
20260906205355 85 297 0.0 2.0 0.00 0.00 0.00 81 1012.2
20260906204856 84 48 1.0 3.0 0.00 0.00 0.00 84 1012.4
20260906204355 84 48 1.0 3.0 0.00 0.00 0.00 83 1012.5
20260906203856 84 169 1.0 3.0 0.00 0.00 0.00 85 1012.5
20260906203354 83 190 1.0 3.0 0.00 0.00 0.00 86 1012.6
20260906202858 82 248 1.0 4.0 0.00 0.00 0.00 86 1012.6
20260906202853 83 182 1.0 4.0 0.00 0.00 0.00 87 1012.6
20260906202126 83 258 1.0 4.0 0.00 0.00 0.00 88 1012.7
20260906201347 83 187 1.0 4.0 0.00 0.00 0.00 88 1012.5
20260906200847 83 253 2.0 5.0 0.00 0.00 0.00 87 1012.6
20260906200348 83 178 1.0 5.0 0.00 0.00 0.00 89 1012.4
20260906195848 82 158 1.0 3.0 0.00 0.00 0.00 89 1012.4
20260906195349 81 205 1.0 3.0 0.00 0.00 0.00 89 1012.4
20260906194847 81 0 1.0 6.0 0.00 0.00 0.00 89 1012.5
20260906194347 81 0 1.0 6.0 0.00 0.00 0.00 89 1012.7
20260906193848 81 0 2.0 6.0 0.00 0.00 0.00 89 1012.9
20260906193348 81 0 2.0 6.0 0.00 0.00 0.00 89 1013.2
20260906192848 81 0 2.0 6.0 0.00 0.00 0.00 88 1013.3
20260906192349 81 0 2.0 6.0 0.00 0.00 0.00 87 1013.6
20260906192118 82 0 1.0 5.0 0.00 0.00 0.00 86 1013.7
20260906191349 82 0 0.0 3.0 0.00 0.00 0.00 85 1013.8
20260906191119 82 0 0.0 3.0 0.00 0.00 0.00 84 1013.9
20260906190347 82 0 0.0 3.0 0.00 0.00 0.00 84 1014.0
20260906185847 82 0 0.0 3.0 0.00 0.00 0.00 83 1013.9
20260906185625 82 0 1.0 5.0 0.00 0.00 0.00 82 1013.9
20260906185348 82 0 1.0 3.0 0.00 0.00 0.00 83 1013.8
20260906184610 83 0 2.0 5.0 0.00 0.00 0.00 82 1013.8
20260906183840 83 0 2.0 5.0 0.00 0.00 0.00 82 1013.7
20260906183613 83 0 1.0 5.0 0.00 0.00 0.00 81 1013.7
20260906183110 84 0 2.0 5.0 0.00 0.00 0.00 80 1013.8
20260906182339 85 0 2.0 4.0 0.00 0.00 0.00 80 1013.9
20260906181839 85 0 1.0 5.0 0.00 0.00 0.00 80 1013.8
20260906181341 85 0 1.0 5.0 0.00 0.00 0.00 80 1013.6
20260906180839 85 0 1.0 6.0 0.00 0.00 0.00 79 1013.8
20260906180342 85 184 1.0 6.0 0.00 0.00 0.00 78 1013.8
20260906180337 85 183 2.0 9.0 0.00 0.00 0.00 77 1013.9
20260906175954 85 163 2.0 9.0 0.00 0.00 0.00 77 1013.9
20260906175106 86 250 2.0 11.0 0.00 0.00 0.00 77 1013.8
20260906174341 87 321 3.0 11.0 0.00 0.00 0.00 77 1013.6
20260906174335 87 63 2.0 11.0 0.00 0.00 0.00 77 1013.7
20260906173605 88 40 3.0 11.0 0.00 0.00 0.00 77 1013.6
20260906172836 89 331 3.0 8.0 0.00 0.00 0.00 76 1013.6
20260906172335 90 344 2.0 5.0 0.00 0.00 0.00 77 1013.6
20260906172108 89 72 1.0 4.0 0.00 0.00 0.00 77 1013.6
20260906171332 89 139 1.0 4.0 0.00 0.00 0.00 76 1013.6
20260906170831 89 283 1.0 3.0 0.00 0.00 0.00 76 1013.7
20260906170601 88 336 1.0 3.0 0.00 0.00 0.00 77 1013.8
20260906165608 89 131 1.0 5.0 0.00 0.00 0.00 75 1013.7
20260906164830 88 159 1.0 5.0 0.00 0.00 0.00 76 1013.7
20260906164331 88 148 1.0 4.0 0.00 0.00 0.00 78 1013.7
20260906163824 88 30 0.0 2.0 0.00 0.00 0.00 78 1013.9
20260906163323 87 17 0.0 2.0 0.00 0.00 0.00 80 1013.9
20260906163055 86 17 0.0 2.0 0.00 0.00 0.00 81 1013.8
20260906162320 86 17 1.0 2.0 0.00 0.00 0.00 81 1014.0
20260906162315 86 17 0.0 1.0 0.00 0.00 0.00 82 1013.9
20260906161546 87 17 1.0 3.0 0.00 0.00 0.00 81 1013.8
20260906161432 86 17 0.0 3.0 0.00 0.00 0.00 81 1013.8
20260906160541 86 10 1.0 3.0 0.00 0.00 0.00 83 1013.8
20260906155809 85 10 1.0 4.0 0.00 0.00 0.00 85 1013.8
20260906155308 84 147 0.0 4.0 0.00 0.00 0.00 87 1013.8
20260906154804 83 29 0.0 0.0 0.00 0.00 0.00 89 1013.9
20260906154304 83 33 0.0 0.0 0.00 0.00 0.00 89 1013.9
20260906153804 83 33 0.0 0.0 0.00 0.00 0.00 89 1013.8
20260906153758 83 65 0.0 1.0 0.00 0.00 0.00 89 1013.9
20260906152755 83 65 1.0 1.0 0.00 0.00 0.00 89 1013.8
20260906152248 83 65 1.0 3.0 0.00 0.00 0.00 89 1013.8
20260906151747 83 65 1.0 3.0 0.00 0.00 0.00 89 1013.8
20260906151246 83 65 0.0 3.0 0.00 0.00 0.00 89 1013.8
20260906150744 83 153 0.0 2.0 0.00 0.00 0.00 89 1013.8
20260906150516 83 153 0.0 2.0 0.00 0.00 0.00 89 1013.8
20260906145744 83 153 0.0 2.0 0.00 0.00 0.00 89 1013.8
20260906145248 83 153 0.0 1.0 0.00 0.00 0.00 89 1013.8
20260906144740 83 153 0.0 2.0 0.00 0.00 0.00 89 1013.8
20260906144241 83 153 0.0 2.0 0.00 0.00 0.00 89 1013.8
20260906143741 83 152 0.0 1.0 0.00 0.00 0.00 89 1013.8
20260906143242 83 152 0.0 1.0 0.00 0.00 0.00 89 1013.7
20260906143012 83 152 0.0 1.0 0.00 0.00 0.00 89 1013.7
20260906142511 83 152 0.0 1.0 0.00 0.00 0.00 89 1013.7
20260906142011 83 152 0.0 1.0 0.00 0.00 0.00 89 1013.7
20260906141858 83 151 0.0 1.0 0.00 0.00 0.00 89 1013.7
20260906140737 83 151 0.0 0.0 0.00 0.00 0.00 89 1013.8
20260906140236 82 151 0.0 0.0 0.00 0.00 0.00 89 1013.8
20260906140007 82 151 0.0 1.0 0.00 0.00 0.00 89 1013.7
20260906135234 82 151 0.0 1.0 0.00 0.00 0.00 88 1013.7
20260906134734 82 151 0.0 0.0 0.00 0.00 0.00 89 1013.7
20260906134233 82 0 0.0 0.0 0.00 0.00 0.00 88 1013.7
20260906133729 82 0 0.0 0.0 0.00 0.00 0.00 88 1013.6
20260906133230 82 0 0.0 0.0 0.00 0.00 0.00 88 1013.6
20260906132733 81 0 0.0 0.0 0.00 0.00 0.00 88 1013.4
20260906132728 81 0 0.0 0.0 0.00 0.00 0.00 88 1013.5
20260906131726 81 0 0.0 0.0 0.00 0.00 0.00 88 1013.4
20260906131613 81 0 0.0 0.0 0.00 0.00 0.00 87 1013.2
20260906131500 81 0 0.0 0.0 0.00 0.00 0.00 87 1013.3
20260906130845 81 0 0.0 0.0 0.00 0.00 0.00 87 1013.2
20260906125724 81 0 0.0 0.0 0.00 0.00 0.00 87 1013.1
20260906125452 81 0 0.0 0.0 0.00 0.00 0.00 87 1013.1
20260906124720 81 0 0.0 0.0 0.00 0.00 0.00 87 1013.1
20260906124450 81 0 0.0 0.0 0.00 0.00 0.00 87 1013.0
20260906123723 81 0 0.0 0.0 0.00 0.00 0.00 87 1012.9
20260906123718 81 0 0.0 0.0 0.00 0.00 0.00 87 1013.0
20260906122719 81 0 0.0 0.0 0.00 0.00 0.00 87 1012.8
20260906122220 81 0 0.0 0.0 0.00 0.00 0.00 87 1012.8
20260906121719 81 0 0.0 0.0 0.00 0.00 0.00 87 1012.7
20260906121212 81 0 0.0 0.0 0.00 0.00 0.00 87 1012.5
20260906120709 81 0 0.0 0.0 0.00 0.00 0.00 87 1012.5
20260906120210 81 0 0.0 0.0 0.00 0.00 0.00 87 1012.4
20260906115709 81 0 0.0 1.0 0.00 0.00 0.00 87 1012.4
20260906115210 81 0 0.0 1.0 0.00 0.00 0.00 87 1012.3
20260906114707 81 0 0.0 1.0 0.00 0.00 0.00 87 1012.3
20260906114435 81 0 0.0 1.0 0.00 0.00 0.00 87 1012.2
20260906113708 81 0 0.0 1.0 0.00 0.00 0.00 86 1012.2
20260906113205 81 0 0.0 0.0 0.00 0.00 0.00 86 1012.2
20260906112704 81 0 0.0 0.0 0.00 0.00 0.00 86 1012.2
20260906112205 81 0 0.0 0.0 0.00 0.00 0.00 86 1012.2
20260906111938 81 0 0.0 0.0 0.00 0.00 0.00 86 1012.2
20260906111204 81 0 0.0 0.0 0.00 0.00 0.00 86 1012.2
20260906110935 81 0 0.0 0.0 0.00 0.00 0.00 86 1012.2
20260906110435 81 0 0.0 0.0 0.00 0.00 0.00 86 1012.2
20260906105704 81 0 0.0 0.0 0.00 0.00 0.00 85 1012.1
20260906105432 81 0 0.0 0.0 0.00 0.00 0.00 85 1012.1
20260906104703 81 0 0.0 0.0 0.00 0.00 0.00 85 1012.1
20260906104204 81 0 0.0 0.0 0.00 0.00 0.00 85 1012.0
20260906103703 81 0 0.0 0.0 0.00 0.00 0.00 85 1011.9
20260906103203 81 0 0.0 0.0 0.00 0.00 0.00 85 1011.8
20260906102702 81 0 0.0 0.0 0.00 0.00 0.00 85 1011.8
20260906102435 82 0 0.0 0.0 0.00 0.00 0.00 85 1011.7
20260906101933 82 0 0.0 0.0 0.00 0.00 0.00 85 1011.7
20260906101200 82 0 0.0 0.0 0.00 0.00 0.00 85 1011.8
20260906100705 82 0 0.0 0.0 0.00 0.00 0.00 85 1011.8
20260906100701 82 0 0.0 0.0 0.00 0.00 0.00 85 1011.8
20260906095655 82 0 0.0 0.0 0.00 0.00 0.00 85 1011.8
20260906095425 82 0 0.0 0.0 0.00 0.00 0.00 86 1011.7
20260906094653 82 0 0.0 0.0 0.00 0.00 0.00 85 1011.7
20260906094153 82 0 0.0 0.0 0.00 0.00 0.00 85 1011.7
20260906093652 82 0 0.0 1.0 0.00 0.00 0.00 85 1011.7
20260906093153 82 0 0.0 1.0 0.00 0.00 0.00 85 1011.6
20260906092650 82 0 0.0 0.0 0.00 0.00 0.00 85 1011.6
20260906092151 82 0 0.0 0.0 0.00 0.00 0.00 85 1011.6
20260906091656 82 0 0.0 0.0 0.00 0.00 0.00 85 1011.4
20260906091651 82 0 0.0 0.0 0.00 0.00 0.00 85 1011.5
20260906090650 82 0 0.0 1.0 0.00 0.00 0.00 85 1011.4
20260906090149 82 0 0.0 1.0 0.00 0.00 0.00 85 1011.5
20260906085648 82 0 0.0 0.0 0.00 0.00 0.00 85 1011.5
20260906085147 82 0 0.0 0.0 0.00 0.00 0.00 85 1011.5
20260906084648 82 0 0.0 0.0 0.00 0.00 0.00 85 1011.4
20260906084149 82 0 0.0 0.0 0.00 0.00 0.00 85 1011.5
20260906083916 82 0 0.0 0.0 0.00 0.00 0.00 85 1011.5
20260906083147 82 0 0.0 0.0 0.00 0.00 0.00 85 1011.5
20260906083142 82 0 0.0 0.0 0.00 0.00 0.00 85 1011.5
20260906082759 82 0 0.0 1.0 0.00 0.00 0.00 85 1011.5
20260906081914 82 0 0.0 1.0 0.00 0.00 0.00 85 1011.5
20260906081415 82 0 0.0 1.0 0.00 0.00 0.00 85 1011.6
20260906081259 82 0 0.0 1.0 0.00 0.00 0.00 85 1011.5
20260906080142 82 0 0.0 1.0 0.00 0.00 0.00 85 1011.6
20260906075650 82 0 0.0 1.0 0.00 0.00 0.00 84 1011.6
20260906075644 82 0 0.0 1.0 0.00 0.00 0.00 85 1011.6
20260906074643 83 0 0.0 1.0 0.00 0.00 0.00 84 1011.6
20260906074141 83 0 0.0 1.0 0.00 0.00 0.00 84 1011.7
20260906073642 83 0 0.0 0.0 0.00 0.00 0.00 84 1011.8
20260906073141 83 0 0.0 0.0 0.00 0.00 0.00 84 1011.9
20260906072642 83 0 0.0 0.0 0.00 0.00 0.00 84 1011.9
20260906072139 83 0 0.0 0.0 0.00 0.00 0.00 84 1011.8
20260906071909 83 0 0.0 1.0 0.00 0.00 0.00 84 1011.8
20260906071407 83 0 0.0 1.0 0.00 0.00 0.00 84 1011.9
20260906070910 83 0 0.0 0.0 0.00 0.00 0.00 84 1011.8
20260906070138 83 0 0.0 0.0 0.00 0.00 0.00 84 1011.8
20260906065637 83 0 0.0 0.0 0.00 0.00 0.00 84 1011.9
20260906065135 83 0 0.0 0.0 0.00 0.00 0.00 84 1011.9
20260906064909 83 0 0.0 1.0 0.00 0.00 0.00 84 1012.1
20260906064633 83 0 0.0 1.0 0.00 0.00 0.00 84 1012.1
20260906063630 83 0 0.0 2.0 0.00 0.00 0.00 83 1012.0
20260906063127 83 0 0.0 2.0 0.00 0.00 0.00 83 1012.0
20260906062629 83 0 0.0 2.0 0.00 0.00 0.00 83 1012.0
20260906062126 83 0 0.0 2.0 0.00 0.00 0.00 83 1012.0
20260906061621 83 0 0.0 2.0 0.00 0.00 0.00 83 1011.9
20260906061123 83 0 0.0 1.0 0.00 0.00 0.00 83 1011.9
20260906060616 83 0 0.0 2.0 0.00 0.00 0.00 83 1011.9
20260906060119 83 0 0.0 2.0 0.00 0.00 0.00 83 1012.0
20260906055616 83 0 0.0 2.0 0.00 0.00 0.00 83 1012.0
20260906055116 83 0 0.0 2.0 0.00 0.00 0.00 83 1012.0
20260906054615 83 0 0.0 2.0 0.00 0.00 0.00 83 1012.0
20260906054115 83 0 0.0 2.0 0.00 0.00 0.00 83 1012.0
20260906053618 83 0 0.0 2.0 0.00 0.00 0.00 83 1012.0
20260906053112 83 0 0.0 2.0 0.00 0.00 0.00 83 1011.9
20260906052605 83 0 0.0 2.0 0.00 0.00 0.00 83 1011.9
20260906052108 83 0 0.0 3.0 0.00 0.00 0.00 83 1012.0
20260906051603 83 0 0.0 3.0 0.00 0.00 0.00 83 1012.1
20260906051104 84 0 0.0 3.0 0.00 0.00 0.00 83 1012.1
20260906050601 84 0 0.0 3.0 0.00 0.00 0.00 83 1012.2
20260906045559 84 0 1.0 3.0 0.00 0.00 0.00 83 1012.0
20260906045102 84 0 0.0 3.0 0.00 0.00 0.00 83 1012.2
20260906045057 84 0 0.0 3.0 0.00 0.00 0.00 83 1012.2
20260906044057 84 0 0.0 3.0 0.00 0.00 0.00 83 1012.2
20260906043556 84 0 0.0 3.0 0.00 0.00 0.00 83 1012.1
20260906043049 84 0 1.0 4.0 0.00 0.00 0.00 83 1012.1
20260906042822 84 0 1.0 4.0 0.00 0.00 0.00 82 1012.0
20260906042051 84 0 1.0 4.0 0.00 0.00 0.00 82 1012.1
20260906041820 84 0 1.0 4.0 0.00 0.00 0.00 82 1012.1
20260906041319 84 0 1.0 4.0 0.00 0.00 0.00 82 1012.2
20260906040822 84 0 1.0 4.0 0.00 0.00 0.00 82 1012.2
20260906040049 84 0 1.0 4.0 0.00 0.00 0.00 82 1012.2
20260906035548 84 0 2.0 6.0 0.00 0.00 0.00 82 1012.3
20260906035049 84 0 1.0 6.0 0.00 0.00 0.00 82 1012.3
20260906034546 84 0 0.0 3.0 0.00 0.00 0.00 82 1012.3
20260906034045 84 0 0.0 3.0 0.00 0.00 0.00 81 1012.3
20260906033545 84 0 0.0 9.0 0.00 0.00 0.00 81 1012.2
20260906033045 84 0 0.0 9.0 0.00 0.00 0.00 81 1012.3
20260906032545 85 0 1.0 9.0 0.00 0.00 0.00 81 1012.2
20260906032043 85 0 1.0 9.0 0.00 0.00 0.00 81 1012.2
20260906031545 85 0 1.0 4.0 0.00 0.00 0.00 81 1012.2
20260906031045 85 0 1.0 4.0 0.00 0.00 0.00 81 1012.2
20260906030543 85 0 1.0 4.0 0.00 0.00 0.00 81 1012.1
20260906030037 85 0 1.0 4.0 0.00 0.00 0.00 81 1012.0
20260906025535 85 0 1.0 5.0 0.00 0.00 0.00 81 1011.9
20260906025315 85 0 2.0 5.0 0.00 0.00 0.00 80 1011.7
20260906025037 85 0 2.0 5.0 0.00 0.00 0.00 81 1011.9
20260906024538 85 0 2.0 4.0 0.00 0.00 0.00 80 1011.8
20260906023536 85 0 1.0 6.0 0.00 0.00 0.00 80 1011.7
20260906023309 85 0 1.0 6.0 0.00 0.00 0.00 80 1011.6
20260906022808 85 0 1.0 4.0 0.00 0.00 0.00 80 1011.6
20260906022310 85 0 0.0 4.0 0.00 0.00 0.00 80 1011.5
20260906021806 85 0 0.0 4.0 0.00 0.00 0.00 80 1011.4
20260906021034 85 0 1.0 4.0 0.00 0.00 0.00 80 1011.3
20260906020532 85 0 1.0 4.0 0.00 0.00 0.00 80 1011.3
20260906020030 85 0 2.0 8.0 0.00 0.00 0.00 80 1011.3
20260906015531 85 0 2.0 8.0 0.00 0.00 0.00 80 1011.2
20260906015030 85 0 2.0 8.0 0.00 0.00 0.00 80 1011.2
20260906014533 85 0 2.0 8.0 0.00 0.00 0.00 80 1011.2
20260906014031 85 0 3.0 9.0 0.00 0.00 0.00 80 1011.2
20260906013533 85 0 2.0 9.0 0.00 0.00 0.00 80 1011.1
20260906013026 85 0 1.0 6.0 0.00 0.00 0.00 80 1011.1
20260906012526 85 0 1.0 6.0 0.00 0.00 0.00 81 1011.1
20260906012026 85 0 2.0 6.0 0.00 0.00 0.00 81 1011.0
20260906011527 85 0 2.0 5.0 0.00 0.00 0.00 81 1010.9
20260906011300 85 0 2.0 5.0 0.00 0.00 0.00 81 1011.0
20260906010758 85 0 2.0 4.0 0.00 0.00 0.00 81 1011.0
20260906010026 85 0 2.0 5.0 0.00 0.00 0.00 81 1011.0
20260906005532 84 0 1.0 4.0 0.00 0.00 0.00 81 1011.0
20260906005527 84 0 1.0 5.0 0.00 0.00 0.00 81 1011.0
20260906004523 84 0 1.0 4.0 0.00 0.00 0.00 80 1010.9
20260906004022 84 0 1.0 5.0 0.00 0.00 0.00 80 1010.9
20260906003524 84 0 1.0 5.0 0.00 0.00 0.00 80 1010.9
20260906003021 84 0 0.0 5.0 0.00 0.00 0.00 80 1010.9
20260906002755 84 0 0.0 4.0 0.00 0.00 0.00 81 1010.8
20260906002025 84 0 1.0 4.0 0.00 0.00 0.00 81 1010.9
20260906001523 85 0 0.0 3.0 0.00 0.00 0.00 82 1011.0
20260906001023 85 140 1.0 2.0 0.00 0.00 0.00 82 1011.0
20260906000522 85 140 1.0 3.0 0.00 0.00 0.00 83 1011.1
20260906000251 85 139 0.0 3.0 0.00 0.00 0.00 83 1011.1
20260905235518 85 248 0.0 1.0 0.00 0.00 0.00 83 1011.1
20260905235016 86 248 0.0 1.0 0.00 0.00 0.00 84 1011.2
20260905234518 86 248 0.0 1.0 0.00 0.00 0.00 84 1011.3
20260905234016 86 248 0.0 1.0 0.00 0.00 0.00 84 1011.4
20260905233517 86 248 0.0 1.0 0.00 0.00 0.00 84 1011.4
20260905233015 86 248 0.0 1.0 0.00 0.00 0.00 84 1011.4
20260905232516 86 248 0.0 1.0 0.00 0.00 0.00 84 1011.3
20260905232018 86 248 0.0 1.0 0.00 0.00 0.00 83 1011.4
20260905231518 86 248 0.0 1.0 0.00 0.00 0.00 83 1011.3
20260905231016 86 248 0.0 1.0 0.00 0.00 0.00 83 1011.2
20260905230516 87 248 0.0 1.0 0.00 0.00 0.00 82 1011.2
20260905230247 87 248 0.0 1.0 0.00 0.00 0.00 82 1011.1
20260905225518 86 248 0.0 1.0 0.00 0.00 0.00 80 1011.0
20260905225016 86 248 0.0 1.0 0.00 0.00 0.00 80 1011.1
20260905224516 86 248 0.0 2.0 0.00 0.00 0.00 79 1011.0
20260905224012 87 0 0.0 2.0 0.00 0.00 0.00 79 1011.0
20260905223744 87 0 0.0 2.0 0.00 0.00 0.00 79 1011.0
20260905223009 87 0 0.0 2.0 0.00 0.00 0.00 79 1011.0
20260905222513 87 0 0.0 1.0 0.00 0.00 0.00 78 1010.9